Погода в Сарсе

Россия / Пермский край     56°33′03″N   57°07′45″E
темп.,
°C
ветер,
м/с
пор.,
м/с
влажн.,
%
обл.,
%
осадки,
мм/ч
давл.,
гПа
погр.,
м
22 апреля, чт
чт2223:00+6юв386099 0.0 1030139
02:00+5ююв31062100 0.0 1030183
05:00+4ююв31166100 0.0 1030244
08:00+6ююз41262100 0.0 1030897
11:00+6ю51369100 0.1 1030932
14:00+5ю51081100 0.2 1031948
17:00+7ююз4776100 0.3 10311031
20:00+5ююз4991100 0.3 1031882
23 апреля, пт
пт2323:00+3ю41196100 1.9 1030669
02:00+1ю41297100 4.7 1030555
05:00+1ююз3997100 7.9 1031367
08:00+2ю3897100 0.1 1031443
11:00+3ююз2696100 0.1 1031542
14:00+4ю2393100 0.0 1031524
17:00+5юв238696 0.1 1030549
20:00+4в2395100 0.0 102998
24 апреля, сб
сб2423:00+2в2596100 0.0 102884
02:00+2в3895100 0.0 1026149
05:00+4вюв2494100 0.0 102485
08:00+4вюв2495100 0.5 1022114
11:00+5вюв3797100 1.1 1021368
14:00+6вюв4894100 0.5 1019585
17:00+7вюв4887100 0.9 1017870
20:00+6вюв41087100 0.3 1017769
25 апреля, вс
вс2523:00+5вюв41187100 0.3 1016494
02:00+4юв41088100 0.0 1015647
05:00+3юв4792100 0.1 1014663
08:00+4юв4895100 0.7 1013793
11:00+5юв4994100 0.8 1012598
14:00+6ю51389100 0.8 10111392
17:00+8юз6127580 3.5 10121425
20:00+5зюз368211 0.2 1014196
26 апреля, пн
пн2623:00+3ююз3990100 0.2 1015201
02:00+2ююз3109196 0.0 1015234
05:00+1ююз39955 0.0 1016208
08:00+4ююз49865 0.0 1016368
11:00+8юз5106538 0.1 10151416
14:00+7зюз6107355 0.7 10161267
17:00+8зюз596124 1.1 10161538
20:00+6зюз4961100 0.1 1016348